Hallock, MN

10:57 AM CDT on May 23, 2018 (GMT -0500)
Hallock Municipal

Weather History for KHCO - January, 2014

Change the Weather History Date:

Tuesday, January 14, 2014

  Actual Average Record
Temperature  
Mean Temperature 4 °F -  
Max Temperature 12 °F 13 °F 40 °F (1987)
Min Temperature -5 °F -7 °F -36 °F (1972)
Degree Days  
Heating Degree Days 61    
Moisture  
Dew Point 2 °F    
Average Humidity 79    
Maximum Humidity 92    
Minimum Humidity 66    
Precipitation  
Precipitation 0.01 in - - ()
Sea Level Pressure  
Sea Level Pressure 30.03 in    
Wind  
Wind Speed 10 mph (NNW)    
Max Wind Speed 23 mph    
Max Gust Speed 29 mph    
Visibility 7 miles    
Events Snow    
Averages and records for this station are not official NWS values.
T = Trace of Precipitation, MM = Missing Value Source: NWS Daily Summary

Daily Weather History Graph

Daily Weather History Graph

Search for Another Location

Airport or City:

Astronomy

Jan. 14, 2014 Rise Set
Actual Time 8:16 AM CST 4:58 PM CST
Civil Twilight 7:40 AM CST 5:33 PM CST
Nautical Twilight 7:00 AM CST 6:13 PM CST
Astronomical Twilight 6:23 AM CST 6:50 PM CST
Moon 4:07 PM CST (1/14) 6:49 AM CST (1/14)
Length of Visible Light 9h 53m
Length of Day
8h 42m
Waxing Gibbous, 98% of the Moon is Illuminated
Jan 14
Waxing Gibbous
Jan 15
Full
Jan 23
Last Quarter
Jan 30
New
Feb 6
First Quarter

Hourly Weather History & Observations

Time (CST) Temp. Windchill Dew Point Humidity Pressure Visibility Wind Dir Wind Speed Gust Speed Precip Events Conditions
12:13 AM 12.2 °F 6.1 °F 8.6 °F 85% 29.67 in 2.5 mi NNE 3.5 mph - N/A Snow Light Snow
12:33 AM 12.2 °F 2.9 °F 8.6 °F 85% 29.69 in 2.5 mi North 5.8 mph - N/A Snow Light Snow
12:53 AM 12.2 °F 1.7 °F 8.6 °F 85% 29.70 in 2.5 mi NNW 6.9 mph - N/A Snow Light Snow
1:13 AM 12.2 °F 1.7 °F 8.6 °F 85% 29.72 in 3.0 mi NNW 6.9 mph - N/A Snow Light Snow
1:33 AM 12.2 °F 1.7 °F 8.6 °F 85% 29.73 in 1.8 mi NNW 6.9 mph - N/A Snow Light Snow
1:53 AM 10.4 °F -0.4 °F 8.6 °F 92% 29.74 in 2.0 mi NNW 6.9 mph - N/A Snow Light Snow
2:13 AM 10.4 °F -3.3 °F 6.8 °F 85% 29.75 in 3.0 mi NNW 10.4 mph - N/A Snow Light Snow
2:33 AM 10.4 °F -2.4 °F 6.8 °F 85% 29.76 in 7.0 mi North 9.2 mph - N/A Snow Light Snow
2:53 AM 10.4 °F -1.5 °F 6.8 °F 85% 29.77 in 7.0 mi NNW 8.1 mph - N/A   Overcast
3:14 AM 10.4 °F -2.4 °F 6.8 °F 85% 29.78 in 4.0 mi NNW 9.2 mph - N/A Snow Light Snow
3:33 AM 10.4 °F -3.3 °F 6.8 °F 85% 29.79 in 4.0 mi NNW 10.4 mph - N/A Snow Light Snow
3:53 AM 8.6 °F -6.3 °F 5.0 °F 85% 29.80 in 3.0 mi NNW 11.5 mph - N/A Snow Light Snow
4:14 AM 8.6 °F -7.0 °F 3.2 °F 79% 29.82 in 2.5 mi NNW 12.7 mph - N/A Snow Light Snow
4:33 AM 6.8 °F -7.8 °F 3.2 °F 85% 29.83 in 5.0 mi NNW 10.4 mph - N/A Snow Light Snow
4:53 AM 6.8 °F -6.9 °F 1.4 °F 79% 29.85 in 7.0 mi NNW 9.2 mph - N/A Snow Light Snow
5:14 AM 5.0 °F -9.1 °F 1.4 °F 85% 29.86 in 10.0 mi NNW 9.2 mph - N/A Snow Light Snow
5:33 AM 5.0 °F -10.0 °F 1.4 °F 85% 29.87 in 10.0 mi NNW 10.4 mph - N/A Snow Light Snow
5:53 AM 5.0 °F -9.1 °F 1.4 °F 85% 29.88 in 7.0 mi NNW 9.2 mph - N/A Snow Light Snow
6:13 AM 6.8 °F -5.9 °F 1.4 °F 79% 29.89 in 3.0 mi NNW 8.1 mph - N/A Snow Light Snow
6:33 AM 6.8 °F -5.9 °F 1.4 °F 79% 29.90 in 7.0 mi NNW 8.1 mph - N/A Snow Light Snow
6:54 AM 6.8 °F -9.3 °F 1.4 °F 79% 29.91 in 5.0 mi NNW 12.7 mph - N/A Snow Light Snow
7:13 AM 6.8 °F -6.9 °F 1.4 °F 79% 29.93 in 7.0 mi North 9.2 mph - N/A Snow Light Snow
7:33 AM 6.8 °F -6.9 °F 1.4 °F 79% 29.94 in 7.0 mi NNW 9.2 mph - N/A Snow Light Snow
7:54 AM 6.8 °F -4.8 °F 1.4 °F 79% 29.96 in 7.0 mi NNW 6.9 mph - N/A Snow Light Snow
8:13 AM 6.8 °F -4.8 °F 1.4 °F 79% 29.96 in 7.0 mi NNW 6.9 mph - N/A Snow Light Snow
8:33 AM 6.8 °F -5.9 °F 1.4 °F 79% 29.98 in 5.0 mi NNW 8.1 mph - N/A Snow Light Snow
8:54 AM 6.8 °F -5.9 °F 3.2 °F 85% 29.99 in 3.0 mi NNW 8.1 mph - N/A Snow Light Snow
9:13 AM 8.6 °F -5.5 °F 3.2 °F 79% 30.01 in 3.0 mi NNW 10.4 mph - N/A Snow Light Snow
9:33 AM 8.6 °F -7.0 °F 5.0 °F 85% 30.02 in 4.0 mi NNW 12.7 mph - N/A Snow Light Snow
9:53 AM 10.4 °F -6.6 °F 5.0 °F 79% 30.02 in 5.0 mi NNW 16.1 mph 19.6 mph N/A   Haze
10:13 AM 10.4 °F -7.2 °F 5.0 °F 79% 30.04 in 5.0 mi NNW 17.3 mph - 0.01 in   Haze
10:33 AM 10.4 °F -6.0 °F 6.8 °F 85% 30.05 in 4.0 mi NNW 15.0 mph 21.9 mph 0.01 in   Mostly Cloudy
10:53 AM 10.4 °F -4.8 °F 6.8 °F 85% 30.07 in 2.5 mi NNW 12.7 mph - 0.01 in Snow Light Snow
11:13 AM 10.4 °F -5.4 °F 6.8 °F 85% 30.08 in 2.0 mi NNW 13.8 mph - N/A Snow Light Snow
11:33 AM 10.4 °F -9.5 °F 5.0 °F 79% 30.08 in 0.8 mi NNW 23.0 mph 28.8 mph N/A Snow Light Snow
11:53 AM 10.4 °F -8.6 °F 5.0 °F 79% 30.08 in 1.5 mi NNW 20.7 mph 28.8 mph N/A   Haze
12:13 PM 10.4 °F -9.5 °F 5.0 °F 79% 30.09 in 1.5 mi NNW 23.0 mph 26.5 mph N/A Snow Light Snow
12:33 PM 10.4 °F -8.6 °F 3.2 °F 73% 30.09 in 1.5 mi NNW 20.7 mph 28.8 mph N/A   Haze
12:53 PM 8.6 °F -10.5 °F 3.2 °F 79% 30.09 in 2.5 mi NNW 19.6 mph 27.6 mph N/A   Haze
1:13 PM 8.6 °F -10.0 °F 1.4 °F 73% 30.10 in 5.0 mi NNW 18.4 mph 24.2 mph N/A   Haze
1:33 PM 8.6 °F -8.9 °F 1.4 °F 73% 30.11 in 10.0 mi North 16.1 mph 21.9 mph N/A   Scattered Clouds
1:53 PM 8.6 °F -10.5 °F 1.4 °F 73% 30.12 in 7.0 mi NNW 19.6 mph 23.0 mph N/A   Mostly Cloudy
2:13 PM 8.6 °F -9.5 °F 3.2 °F 79% 30.13 in 5.0 mi NNW 17.3 mph - N/A   Haze
2:33 PM 10.4 °F -7.2 °F 3.2 °F 73% 30.14 in 5.0 mi NNW 17.3 mph - N/A   Haze
2:53 PM 10.4 °F -6.0 °F 3.2 °F 73% 30.14 in 10.0 mi North 15.0 mph - N/A   Overcast
3:13 PM 10.4 °F -4.1 °F 3.2 °F 73% 30.15 in 10.0 mi NNW 11.5 mph - N/A   Overcast
3:33 PM 10.4 °F -3.3 °F 3.2 °F 73% 30.16 in 10.0 mi NNW 10.4 mph - N/A   Overcast
3:53 PM 10.4 °F -6.0 °F 5.0 °F 79% 30.16 in 7.0 mi NNW 15.0 mph - N/A   Overcast
4:13 PM 10.4 °F -6.0 °F 5.0 °F 79% 30.17 in 10.0 mi NNW 15.0 mph - N/A   Overcast
4:34 PM 10.4 °F -4.8 °F 3.2 °F 73% 30.17 in 10.0 mi NNW 12.7 mph - N/A   Overcast
4:53 PM 10.4 °F -4.1 °F 3.2 °F 73% 30.18 in 10.0 mi NNW 11.5 mph - N/A   Overcast
5:13 PM 10.4 °F -1.5 °F 3.2 °F 73% 30.18 in 10.0 mi NNW 8.1 mph - N/A   Overcast
5:33 PM 10.4 °F -1.5 °F 3.2 °F 73% 30.18 in 10.0 mi NNW 8.1 mph - N/A   Overcast
5:53 PM 10.4 °F -0.4 °F 3.2 °F 73% 30.18 in 10.0 mi NNW 6.9 mph - N/A   Overcast
6:13 PM 10.4 °F 2.2 °F 3.2 °F 73% 30.19 in 10.0 mi NNW 4.6 mph - N/A   Overcast
6:33 PM 10.4 °F 4.0 °F 3.2 °F 73% 30.19 in 10.0 mi NW 3.5 mph - N/A   Overcast
6:53 PM 10.4 °F 2.2 °F 5.0 °F 79% 30.18 in 10.0 mi WNW 4.6 mph - N/A   Overcast
7:13 PM 10.4 °F -0.4 °F 5.0 °F 79% 30.18 in 10.0 mi WNW 6.9 mph - N/A   Overcast
7:33 PM 10.4 °F -0.4 °F 5.0 °F 79% 30.20 in 10.0 mi WNW 6.9 mph - N/A Snow Light Snow
7:53 PM 10.4 °F -5.4 °F 3.2 °F 73% 30.22 in 10.0 mi NW 13.8 mph - N/A   Overcast
8:13 PM 8.6 °F -7.0 °F 1.4 °F 73% 30.20 in 10.0 mi North 12.7 mph - N/A   Mostly Cloudy
8:33 PM 6.8 °F -10.0 °F -2.2 °F 67% 30.21 in 10.0 mi NNW 13.8 mph - N/A   Scattered Clouds
8:53 PM 3.2 °F -12.2 °F -4.0 °F 72% 30.22 in 10.0 mi NNW 10.4 mph - N/A   Clear
9:13 PM 3.2 °F -12.2 °F -5.8 °F 66% 30.21 in 10.0 mi NNW 10.4 mph - N/A   Clear
9:33 PM 1.4 °F -12.5 °F -5.8 °F 72% 30.22 in 10.0 mi NW 8.1 mph - N/A   Clear
9:53 PM -0.4 °F -15.7 °F -7.6 °F 72% 30.22 in 10.0 mi NW 9.2 mph - N/A   Clear
10:13 PM -2.2 °F -18.0 °F -7.6 °F 78% 30.21 in 10.0 mi NW 9.2 mph - N/A   Clear
10:33 PM -0.4 °F -17.6 °F -7.6 °F 72% 30.21 in 10.0 mi NW 11.5 mph - N/A   Clear
10:53 PM -2.2 °F -16.8 °F -7.6 °F 78% 30.20 in 10.0 mi NW 8.1 mph - N/A   Clear
11:13 PM -2.2 °F -16.8 °F -9.4 °F 71% 30.19 in 10.0 mi NW 8.1 mph - N/A   Clear
11:33 PM -4.0 °F -17.8 °F -9.4 °F 78% 30.18 in 10.0 mi WNW 6.9 mph - N/A   Clear
11:53 PM -5.8 °F -19.9 °F -11.2 °F 77% 30.16 in 10.0 mi NW 6.9 mph - N/A   Clear